User: anonymous   Login
Location: Newark
(34.1333°N, 7.9667°W)
Time: 02:51:53
(UTC+00:00)
Language:

Courier 1B - Orbit

View from above orbital plane
View from above orbital plane
View from above satellite
View from above satellite

Ground track
Ground track

The orbit data is extracted from the following two-line orbital elements,

1 00058U 60013A   21163.42181809  .00000080  00000-0 -10630-4 0  9992
2 00058  28.3284  68.4081 0165072 169.4915 190.9138 13.46327293987167
Epoch (UTC): 12 June 2021 10:07:25
Eccentricity: 0.0165072
inclination: 28.3284°
perigee height: 962 km
apogee height: 1209 km
right ascension of ascending node: 68.4081°
argument of perigee: 169.4915°
revolutions per day: 13.46327293
mean anomaly at epoch: 190.9138°
orbit number at epoch: 98716

The dashed part of the orbit path shows where the satellite is in the earth's shadow,  

DLR